GW0552 Weather Reports


time (UTC)temp
C
wind
direction
speed
KPH
gust
KPH
rain 1hr
cm
rain 24hr
cm
rain mn
cm
humidity
%
barometer
mb
20260905024914 23 64 0.0 0.0 0.00 0.00 0.00 99 1011.2
20260905024408 23 64 0.0 0.0 0.00 0.00 0.00 99 1011.1
20260905023904 23 64 0.0 0.0 0.00 0.00 0.00 99 1011.1
20260905023359 23 64 0.0 0.0 0.00 0.00 0.00 98 1010.9
20260905022857 23 64 0.0 0.0 0.00 0.00 0.00 98 1010.8
20260905022348 23 63 0.0 0.0 0.00 0.00 0.00 98 1011.0
20260905021848 23 64 0.0 0.0 0.00 0.00 0.00 98 1011.2
20260905021343 23 69 0.0 0.0 0.00 0.00 0.00 99 1011.4
20260905020838 23 67 0.0 0.0 0.00 0.00 0.00 99 1011.2
20260905020333 23 58 0.0 0.0 0.00 0.00 0.00 98 1011.3
20260905015832 23 61 0.0 0.0 0.00 0.00 0.00 98 1011.3
20260905015331 23 66 0.0 0.0 0.00 0.00 0.00 98 1011.1
20260905014831 23 56 0.0 0.0 0.00 0.00 0.00 98 1011.2
20260905014327 23 55 0.0 0.0 0.00 0.00 0.00 98 1011.0
20260905013821 23 54 0.0 0.0 0.00 0.00 0.00 98 1011.0
20260905013318 23 27 0.0 0.0 0.00 0.00 0.00 98 1011.1
20260905012813 23 63 0.0 0.0 0.00 0.00 0.00 97 1011.0
20260905012309 23 64 0.0 0.0 0.00 0.00 0.00 97 1010.8
20260905011805 24 64 0.0 0.0 0.00 0.00 0.00 97 1010.7
20260905011300 24 63 0.0 0.0 0.00 0.00 0.00 96 1011.0
20260905010754 24 62 0.0 0.0 0.00 0.00 0.00 95 1010.8
20260905010250 24 63 0.0 0.0 0.00 0.00 0.00 95 1010.6
20260905005747 24 63 0.0 0.0 0.00 0.00 0.00 96 1010.5
20260905005242 24 59 0.0 0.0 0.00 0.00 0.00 96 1010.5
20260905004742 24 46 0.0 0.0 0.00 0.00 0.00 95 1010.6
20260905004242 24 46 0.0 0.0 0.00 0.00 0.00 96 1010.8
20260905003742 24 37 0.0 0.0 0.00 0.00 0.00 96 1010.5
20260905003237 25 37 0.0 0.0 0.00 0.00 0.00 96 1010.3
20260905002733 25 33 0.0 0.0 0.00 0.00 0.00 95 1010.0
20260905002228 25 35 0.0 0.0 0.00 0.00 0.00 94 1009.3
20260905001723 25 48 0.0 0.0 0.00 0.00 0.00 93 1009.3
20260905001222 25 47 0.0 0.0 0.00 0.00 0.00 93 1009.2
20260905000718 25 48 0.0 0.0 0.00 0.00 0.00 91 1009.2
20260905000213 25 47 0.0 0.0 0.00 0.00 0.00 92 1009.1
20260904235708 26 46 0.0 0.0 0.00 0.00 0.00 92 1008.9
20260904235203 26 48 0.0 0.0 0.00 0.00 0.00 91 1009.1
20260904234657 26 66 0.0 0.0 0.00 0.00 0.00 89 1009.1
20260904234153 26 70 1.6 1.6 0.00 0.00 0.00 89 1009.3
20260904233649 26 69 0.0 1.6 0.00 0.00 0.00 89 1009.1
20260904233144 26 67 4.8 4.8 0.00 0.00 0.00 90 1008.9
20260904232641 26 66 0.0 1.6 0.00 0.00 0.00 89 1009.3
20260904232137 26 88 3.2 3.2 0.00 0.00 0.00 89 1009.3
20260904231632 26 83 3.2 3.2 0.00 0.00 0.00 89 1009.5
20260904231127 26 70 0.0 0.0 0.00 0.00 0.00 87 1009.5
20260904230626 26 54 0.0 0.0 0.00 0.00 0.00 86 1010.0
20260904230122 26 75 1.6 1.6 0.00 0.00 0.00 87 1009.8
20260904225619 26 68 0.0 0.0 0.00 0.00 0.00 84 1010.0
20260904225115 27 28 1.6 1.6 0.00 0.00 0.00 86 1010.2
20260904224609 27 75 0.0 0.0 0.00 0.00 0.00 81 1010.6
20260904224104 27 57 0.0 0.0 0.00 0.00 0.00 82 1010.5
20260904223603 27 34 1.6 1.6 0.00 0.00 0.00 82 1010.5
20260904223059 28 23 3.2 3.2 0.00 0.00 0.00 80 1010.8
20260904222554 28 57 4.8 4.8 0.00 0.00 0.00 75 1010.6
20260904222050 28 75 4.8 4.8 0.00 0.00 0.00 74 1010.8
20260904221550 28 79 3.2 3.2 0.00 0.00 0.00 74 1010.9
20260904221044 28 79 3.2 3.2 0.00 0.00 0.00 74 1011.2
20260904220543 28 76 4.8 8.0 0.00 0.00 0.00 74 1011.1
20260904220039 27 86 8.0 9.7 0.00 0.00 0.00 74 1011.2
20260904215534 27 73 1.6 1.6 0.00 0.00 0.00 77 1011.5
20260904215030 27 78 0.0 0.0 0.00 0.00 0.00 77 1011.1
20260904214525 26 49 0.0 0.0 0.00 0.00 0.00 80 1011.4
20260904214021 26 35 1.6 3.2 0.00 0.00 0.00 81 1011.5
20260904213518 27 245 4.8 4.8 0.00 0.00 0.00 82 1011.5
20260904213015 27 35 1.6 1.6 0.00 0.00 0.00 77 1011.4
20260904212514 26 68 0.0 0.0 0.00 0.00 0.00 80 1011.5
20260904212009 26 61 0.0 0.0 0.00 0.00 0.00 81 1011.6
20260904211504 26 188 4.8 4.8 0.00 0.00 0.00 82 1011.4
20260904211000 27 196 6.4 8.0 0.00 0.00 0.00 78 1011.4
20260904210459 27 76 0.0 0.0 0.00 0.00 0.00 75 1011.8
20260904205955 27 72 4.8 8.0 0.00 0.00 0.00 80 1012.1
20260904205450 28 320 8.0 9.7 0.00 0.00 0.00 78 1012.2
20260904204947 28 12 3.2 3.2 0.00 0.00 0.00 78 1012.0
20260904204443 28 358 4.8 4.8 0.00 0.00 0.00 78 1012.1
20260904203938 29 45 1.6 3.2 0.00 0.00 0.00 75 1011.4
20260904203435 29 52 0.0 1.6 0.00 0.00 0.00 75 1011.3
20260904202930 29 76 4.8 8.0 0.00 0.00 0.00 74 1011.3
20260904202426 29 68 4.8 8.0 0.00 0.00 0.00 75 1011.0
20260904201922 30 63 4.8 4.8 0.00 0.00 0.00 75 1011.2
20260904201417 30 76 3.2 3.2 0.00 0.00 0.00 78 1010.9
20260904200913 30 75 1.6 1.6 0.00 0.00 0.00 74 1011.0
20260904200411 30 83 1.6 3.2 0.00 0.00 0.00 75 1011.2
20260904195906 31 78 4.8 4.8 0.00 0.00 0.00 70 1011.3
20260904195404 31 62 0.0 0.0 0.00 0.00 0.00 67 1011.3
20260904194859 31 51 0.0 0.0 0.00 0.00 0.00 68 1011.7
20260904194358 31 76 1.6 1.6 0.00 0.00 0.00 68 1011.6
20260904193854 31 58 0.0 0.0 0.00 0.00 0.00 70 1011.6
20260904193349 31 69 3.2 3.2 0.00 0.00 0.00 69 1011.5
20260904192844 31 103 4.8 4.8 0.00 0.00 0.00 68 1011.1
20260904192339 32 85 4.8 9.7 0.00 0.00 0.00 68 1011.2
20260904191836 32 51 11.3 12.9 0.00 0.00 0.00 65 1011.2
20260904191332 32 74 8.0 14.5 0.00 0.00 0.00 68 1011.0
20260904190828 32 71 4.8 8.0 0.00 0.00 0.00 70 1010.9
20260904190324 31 87 6.4 11.3 0.00 0.00 0.00 68 1010.9
20260904185820 31 84 8.0 11.3 0.00 0.00 0.00 67 1011.3
20260904185316 32 70 8.0 12.9 0.00 0.00 0.00 67 1011.3
20260904184815 31 92 11.3 12.9 0.00 0.00 0.00 67 1011.3
20260904184310 31 102 11.3 20.9 0.00 0.00 0.00 71 1011.6
20260904183805 31 76 3.2 3.2 0.00 0.00 0.00 73 1011.5
20260904183300 31 90 3.2 3.2 0.00 0.00 0.00 70 1011.6
20260904182755 32 97 11.3 14.5 0.00 0.00 0.00 68 1011.2
20260904182250 35 105 12.9 14.5 0.00 0.00 0.00 62 1011.4
20260904181746 35 116 4.8 4.8 0.00 0.00 0.00 55 1011.4
20260904181246 35 46 4.8 4.8 0.00 0.00 0.00 57 1011.3
20260904180741 35 178 6.4 8.0 0.00 0.00 0.00 57 1011.6
20260904180236 34 355 6.4 9.7 0.00 0.00 0.00 58 1011.3
20260904175735 33 10 4.8 4.8 0.00 0.00 0.00 59 1011.5
20260904175234 35 29 1.6 3.2 0.00 0.00 0.00 59 1011.2
20260904174729 35 357 3.2 4.8 0.00 0.00 0.00 58 1011.3
20260904174225 35 349 6.4 11.3 0.00 0.00 0.00 58 1011.2
20260904173720 35 292 4.8 8.0 0.00 0.00 0.00 59 1011.7
20260904172822 32 66 0.0 0.0 0.00 0.00 0.00 73 1012.1
20260904172321 32 66 0.0 0.0 0.00 0.00 0.00 73 1012.1
20260904171816 32 66 0.0 0.0 0.00 0.00 0.00 74 1012.3
20260904171311 32 66 0.0 0.0 0.00 0.00 0.00 71 1012.2
20260904170807 32 40 0.0 0.0 0.00 0.00 0.00 70 1012.5
20260904170303 33 41 0.0 0.0 0.00 0.00 0.00 69 1012.2
20260904165802 33 30 1.6 1.6 0.00 0.00 0.00 61 1012.1
20260904165256 33 39 1.6 1.6 0.00 0.00 0.00 61 1012.2
20260904164750 35 9 6.4 8.0 0.00 0.00 0.00 59 1012.3
20260904164246 35 31 0.0 1.6 0.00 0.00 0.00 59 1012.3
20260904163742 34 25 3.2 3.2 0.00 0.00 0.00 61 1012.5
20260904163237 35 295 6.4 8.0 0.00 0.00 0.00 62 1012.5
20260904162736 35 56 0.0 0.0 0.00 0.00 0.00 61 1012.5
20260904162231 35 11 0.0 0.0 0.00 0.00 0.00 61 1012.7
20260904161726 35 72 3.2 3.2 0.00 0.00 0.00 63 1012.6
20260904161221 34 62 0.0 0.0 0.00 0.00 0.00 66 1012.6
20260904160717 34 356 6.4 9.7 0.00 0.00 0.00 62 1012.6
20260904160212 34 69 4.8 4.8 0.00 0.00 0.00 63 1012.8
20260904155712 34 67 3.2 3.2 0.00 0.00 0.00 67 1012.7
20260904155211 33 64 0.0 0.0 0.00 0.00 0.00 66 1012.8
20260904154710 33 37 0.0 0.0 0.00 0.00 0.00 69 1012.9
20260904154205 33 79 4.8 4.8 0.00 0.00 0.00 68 1012.9
20260904153700 33 46 0.0 1.6 0.00 0.00 0.00 69 1012.9
20260904153156 33 75 0.0 3.2 0.00 0.00 0.00 68 1012.9
20260904152652 32 59 1.6 1.6 0.00 0.00 0.00 71 1013.1
20260904152147 32 24 3.2 4.8 0.00 0.00 0.00 70 1012.9
20260904151642 32 7 3.2 3.2 0.00 0.00 0.00 71 1013.0
20260904151141 32 52 0.0 0.0 0.00 0.00 0.00 75 1012.9
20260904150636 31 54 0.0 1.6 0.00 0.00 0.00 76 1012.9
20260904150132 31 41 0.0 0.0 0.00 0.00 0.00 78 1012.9
20260904145630 31 48 1.6 1.6 0.00 0.00 0.00 78 1012.6
20260904145126 31 304 8.0 8.0 0.00 0.00 0.00 75 1012.9
20260904144621 31 56 0.0 0.0 0.00 0.00 0.00 81 1012.8
20260904144117 30 26 0.0 0.0 0.00 0.00 0.00 81 1012.6
20260904143613 30 32 0.0 0.0 0.00 0.00 0.00 85 1013.0
20260904143109 30 42 1.6 3.2 0.00 0.00 0.00 87 1012.9
20260904142605 30 303 4.8 4.8 0.00 0.00 0.00 83 1012.9
20260904142100 30 112 3.2 3.2 0.00 0.00 0.00 85 1013.0
20260904141555 30 27 0.0 0.0 0.00 0.00 0.00 90 1012.9
20260904141050 30 39 0.0 0.0 0.00 0.00 0.00 95 1013.0
20260904140546 29 38 0.0 0.0 0.00 0.00 0.00 95 1013.0
20260904140040 29 40 0.0 0.0 0.00 0.00 0.00 96 1012.8
20260904135539 28 41 0.0 0.0 0.00 0.00 0.00 94 1012.6
20260904135035 28 48 0.0 0.0 0.00 0.00 0.00 96 1012.7
20260904134531 28 47 0.0 0.0 0.00 0.00 0.00 98 1013.0
20260904134025 27 42 0.0 0.0 0.00 0.00 0.00 99 1013.0
20260904133519 27 42 0.0 0.0 0.00 0.00 0.00 99 1013.1
20260904133015 27 43 0.0 0.0 0.00 0.00 0.00 99 1013.0
20260904132510 26 45 0.0 0.0 0.00 0.00 0.00 99 1013.1
20260904132010 26 43 0.0 0.0 0.00 0.00 0.00 99 1013.1
20260904131504 25 42 0.0 0.0 0.00 0.00 0.00 99 1013.2
20260904131001 25 45 0.0 0.0 0.00 0.00 0.00 99 1013.2
20260904130459 25 45 0.0 0.0 0.00 0.00 0.00 99 1013.2
20260904125954 23 47 0.0 0.0 0.00 0.00 0.00 99 1013.2
20260904125451 23 44 0.0 0.0 0.00 0.00 0.00 99 1013.1
20260904124950 23 56 0.0 0.0 0.00 0.00 0.00 99 1012.9
20260904124446 23 56 0.0 0.0 0.00 0.00 0.00 99 1013.2
20260904123942 23 56 0.0 0.0 0.00 0.00 0.00 99 1012.8
20260904123436 23 61 0.0 0.0 0.00 0.00 0.00 99 1013.0
20260904122932 22 63 0.0 0.0 0.00 0.00 0.00 99 1012.8
20260904122431 22 63 0.0 0.0 0.00 0.00 0.00 99 1012.8
20260904121926 22 61 0.0 0.0 0.00 0.00 0.00 99 1013.0
20260904121422 22 61 0.0 0.0 0.00 0.00 0.00 99 1013.0
20260904120919 22 61 0.0 0.0 0.00 0.00 0.00 99 1013.1
20260904120414 22 61 0.0 0.0 0.00 0.00 0.00 99 1013.0
20260904115909 22 62 0.0 0.0 0.00 0.00 0.00 99 1013.0
20260904115405 22 61 0.0 0.0 0.00 0.00 0.00 99 1012.8
20260904114859 22 61 0.0 0.0 0.00 0.00 0.00 99 1012.9
20260904114354 22 61 0.0 0.0 0.00 0.00 0.00 99 1012.7
20260904113849 21 61 0.0 0.0 0.00 0.00 0.00 99 1012.8
20260904113348 21 66 0.0 0.0 0.00 0.00 0.00 99 1012.6
20260904112843 21 61 0.0 0.0 0.00 0.00 0.00 99 1012.4
20260904112339 21 62 0.0 0.0 0.00 0.00 0.00 99 1012.5
20260904111834 21 62 0.0 0.0 0.00 0.00 0.00 99 1012.3
20260904111330 21 62 0.0 0.0 0.00 0.00 0.00 99 1012.3
20260904110826 21 62 0.0 0.0 0.00 0.00 0.00 99 1012.4
20260904110325 21 62 0.0 0.0 0.00 0.00 0.00 99 1012.2
20260904105824 21 61 0.0 0.0 0.00 0.00 0.00 99 1012.3
20260904105319 21 61 0.0 0.0 0.00 0.00 0.00 99 1012.5
20260904104815 21 61 0.0 0.0 0.00 0.00 0.00 99 1012.4
20260904104310 21 61 0.0 0.0 0.00 0.00 0.00 99 1012.3
20260904103807 21 61 0.0 0.0 0.00 0.00 0.00 99 1012.3
20260904103306 21 61 0.0 0.0 0.00 0.00 0.00 99 1012.3
20260904102802 21 61 0.0 0.0 0.00 0.00 0.00 99 1012.3
20260904102258 21 61 0.0 0.0 0.00 0.00 0.00 99 1012.1
20260904101754 21 61 0.0 0.0 0.00 0.00 0.00 99 1012.2
20260904101249 21 61 0.0 0.0 0.00 0.00 0.00 99 1012.2
20260904100745 22 62 0.0 0.0 0.00 0.00 0.00 99 1012.1
20260904100241 22 66 0.0 0.0 0.00 0.00 0.00 99 1012.2
20260904095740 21 63 0.0 0.0 0.00 0.00 0.00 99 1012.2
20260904095235 22 63 0.0 0.0 0.00 0.00 0.00 99 1012.2
20260904094730 21 62 0.0 0.0 0.00 0.00 0.00 99 1012.2
20260904094225 22 60 0.0 0.0 0.00 0.00 0.00 99 1012.1
20260904093722 22 60 0.0 0.0 0.00 0.00 0.00 99 1012.2
20260904093221 22 60 0.0 0.0 0.00 0.00 0.00 99 1012.0
20260904092717 22 61 0.0 0.0 0.00 0.00 0.00 99 1011.9
20260904092213 22 61 0.0 0.0 0.00 0.00 0.00 99 1012.1
20260904091709 22 64 0.0 0.0 0.00 0.00 0.00 99 1012.1
20260904091204 22 64 0.0 0.0 0.00 0.00 0.00 99 1012.1
20260904090659 22 64 0.0 0.0 0.00 0.00 0.00 99 1011.9
20260904090154 22 64 0.0 0.0 0.00 0.00 0.00 99 1011.9
20260904085649 22 63 0.0 0.0 0.00 0.00 0.00 99 1012.0
20260904085144 22 64 0.0 0.0 0.00 0.00 0.00 99 1011.7
20260904084639 22 64 0.0 0.0 0.00 0.00 0.00 99 1011.9
20260904084136 22 62 0.0 0.0 0.00 0.00 0.00 99 1011.8
20260904083632 22 64 0.0 0.0 0.00 0.00 0.00 99 1011.9
20260904083127 22 64 0.0 0.0 0.00 0.00 0.00 99 1011.8
20260904082622 22 74 0.0 0.0 0.00 0.00 0.00 99 1011.6
20260904082117 22 65 0.0 0.0 0.00 0.00 0.00 99 1011.7
20260904081613 22 64 0.0 0.0 0.00 0.00 0.00 99 1011.8
20260904081108 22 64 0.0 0.0 0.00 0.00 0.00 99 1011.8
20260904080604 22 65 0.0 0.0 0.00 0.00 0.00 99 1011.6
20260904080100 22 63 0.0 0.0 0.00 0.00 0.00 99 1011.7
20260904075555 22 65 0.0 0.0 0.00 0.00 0.00 99 1011.8
20260904075050 22 71 0.0 0.0 0.00 0.00 0.00 99 1011.6
20260904074549 22 66 0.0 0.0 0.00 0.00 0.00 99 1011.8
20260904074044 22 62 0.0 0.0 0.00 0.00 0.00 99 1011.9
20260904073539 22 65 0.0 0.0 0.00 0.00 0.00 99 1011.9
20260904073035 22 71 0.0 0.0 0.00 0.00 0.00 99 1011.7
20260904072531 22 66 0.0 0.0 0.00 0.00 0.00 99 1012.0
20260904072026 22 63 0.0 0.0 0.00 0.00 0.00 99 1011.9
20260904071521 22 63 0.0 0.0 0.00 0.00 0.00 99 1012.1
20260904071016 22 62 0.0 0.0 0.00 0.00 0.00 99 1011.9
20260904070515 22 62 0.0 0.0 0.00 0.00 0.00 99 1012.1
20260904070010 22 62 0.0 0.0 0.00 0.00 0.00 99 1011.9
20260904065505 22 62 0.0 0.0 0.00 0.00 0.00 99 1012.0
20260904065001 22 62 0.0 0.0 0.00 0.00 0.00 99 1012.0
20260904064456 22 63 0.0 0.0 0.00 0.00 0.00 99 1011.9
20260904063951 22 65 0.0 0.0 0.00 0.00 0.00 99 1011.9
20260904063448 23 63 0.0 0.0 0.00 0.00 0.00 99 1012.0
20260904062942 23 65 0.0 0.0 0.00 0.00 0.00 99 1012.1
20260904062439 23 67 0.0 0.0 0.00 0.00 0.00 99 1012.2
20260904061934 23 65 0.0 0.0 0.00 0.00 0.00 99 1012.2
20260904061431 23 63 0.0 0.0 0.00 0.00 0.00 99 1012.2
20260904060926 23 63 0.0 0.0 0.00 0.00 0.00 99 1012.4
20260904060422 23 63 0.0 0.0 0.00 0.00 0.00 99 1012.4
20260904055917 23 70 0.0 0.0 0.00 0.00 0.00 99 1012.4
20260904055413 23 71 0.0 0.0 0.00 0.00 0.00 99 1012.4
20260904054909 23 72 0.0 0.0 0.00 0.00 0.00 99 1012.4
20260904054404 23 73 0.0 0.0 0.00 0.00 0.00 99 1012.6
20260904053900 23 74 0.0 0.0 0.00 0.00 0.00 99 1012.7
20260904053358 23 62 0.0 0.0 0.00 0.00 0.00 99 1012.7
20260904052854 23 59 0.0 0.0 0.00 0.00 0.00 99 1012.6
20260904052351 23 45 0.0 0.0 0.00 0.00 0.00 99 1012.5
20260904051847 23 45 0.0 0.0 0.00 0.00 0.00 99 1012.6
20260904051342 23 60 0.0 0.0 0.00 0.00 0.00 99 1012.5
20260904050837 23 60 0.0 0.0 0.00 0.00 0.00 99 1012.4
20260904050334 23 60 0.0 0.0 0.00 0.00 0.00 99 1012.4
20260904045834 23 60 0.0 0.0 0.00 0.00 0.00 99 1012.6
20260904045329 23 60 0.0 0.0 0.00 0.00 0.00 99 1012.3
20260904044829 23 60 0.0 0.0 0.00 0.00 0.00 99 1012.2
20260904044325 23 61 0.0 0.0 0.00 0.00 0.00 99 1012.4
20260904043821 23 46 0.0 0.0 0.00 0.00 0.00 99 1012.3
20260904043317 23 46 0.0 0.0 0.00 0.00 0.00 99 1012.4
20260904042812 23 38 0.0 0.0 0.00 0.00 0.00 99 1012.3
20260904042309 23 24 0.0 0.0 0.00 0.00 0.00 99 1012.2
20260904041808 23 56 0.0 0.0 0.00 0.00 0.00 99 1012.0
20260904041305 23 57 0.0 0.0 0.00 0.00 0.00 99 1012.0
20260904040800 23 73 0.0 0.0 0.00 0.00 0.00 99 1012.1
20260904040255 23 71 0.0 0.0 0.00 0.00 0.00 99 1012.2
20260904035751 23 58 0.0 0.0 0.00 0.00 0.00 99 1012.3
20260904035247 23 74 0.0 0.0 0.00 0.00 0.00 99 1012.4
20260904034745 23 68 0.0 0.0 0.00 0.00 0.00 99 1012.4
20260904034242 24 71 0.0 0.0 0.00 0.00 0.00 99 1012.2
20260904033737 24 64 0.0 0.0 0.00 0.00 0.00 99 1012.3
20260904033234 24 64 0.0 0.0 0.00 0.00 0.00 99 1012.5
20260904032730 24 64 0.0 0.0 0.00 0.00 0.00 99 1012.3
20260904032228 24 67 0.0 0.0 0.00 0.00 0.00 99 1012.2
20260904031723 24 68 0.0 0.0 0.00 0.00 0.00 99 1012.4
20260904031219 24 59 0.0 0.0 0.00 0.00 0.00 99 1012.2
20260904030715 24 61 0.0 0.0 0.00 0.00 0.00 99 1012.3
20260904030209 24 66 0.0 0.0 0.00 0.00 0.00 99 1012.3
20260904025706 24 64 0.0 0.0 0.00 0.00 0.00 99 1012.5
20260904025201 24 68 0.0 0.0 0.00 0.00 0.00 99 1012.2